Find Starlink 33679

NORAD ID: 63460 Int'l Des: 2025-070 Owner: SPXS Country: US Constellation: starlink operational
LEOCIRCULAR

当前视图

正在加载3D地球...

About Starlink 33679

Starlink 33679 (NORAD 63460) is a starlink constellation satellite (v2 mini) launched Apr 6, 2025 by SPXS of US. It operates in LEO, CIRCULAR orbit with a mass of 575.00 kg.

即将过境

Passes for default location (London). Set your location on the main map for personalized predictions.

高度历史

Loading altitude history...

两行轨道根数

1 63460U 25070A 26236.40886851 .00025271 00000-0 92446-3 0 9997
2 63460 43.0028 32.9274 0001116 253.5012 106.5717 15.27588538 78624
Epoch: Aug 24, 2026 • Age: 16 hours

当前状态

高度 485.3 km
远地点 / 近地点 N/A
速度 7.63 km/s
星下点 36.19°N, 80.63°E
发射日期 Apr 6, 2025
运行时间 1.3 years
类型 internet

技术详情

分类 Payload
质量 575.00 kg
干质量 530.00 kg
总质量 575.00 kg
长度 0.30 m
直径 4.10 m
跨度 29.00 m
形状 Box + pan
制造商 SPXS
平台类型 Starlink V2MO
阶段状态 In Orbit
所有者/国家 SPXS/US

Most Searched